• In Romania
  • List of Countries
  • For 7 days
  • Water Temperature
  • Satellite Maps
  • Weather Map
  • Weather Widgets
  • user-avatar
    Login

    Hourly Weather Lankaran

    Today, 20 January, Saturday

    Time Temperature Precipitation Wind Pressure Humidity
    00:00 +1°C° 0 mm 2 mps 627 mmHg 59%
    01:00 +1°C° 0.1 mm 2 mps 627 mmHg 62%
    02:00 +1°C° 0.1 mm 2 mps 628 mmHg 66%
    03:00 0°C° 0 mm 3 mps 628 mmHg 69%
    04:00 -1°C° 0.2 mm 3 mps 628 mmHg 73%
    05:00 -1°C° 0.2 mm 2 mps 629 mmHg 76%
    06:00 -1°C° 0.2 mm 2 mps 629 mmHg 80%
    07:00 -1°C° 0.2 mm 2 mps 630 mmHg 82%
    08:00 -1°C° 0.2 mm 2 mps 630 mmHg 83%
    09:00 -1°C° 0.2 mm 2 mps 631 mmHg 85%
    10:00 -1°C° 0.5 mm 2 mps 631 mmHg 84%
    11:00 +1°C° 0.5 mm 2 mps 632 mmHg 83%
    12:00 +1°C° 0.5 mm 2 mps 632 mmHg 82%
    13:00 +1°C° 0.4 mm 2 mps 632 mmHg 82%
    14:00 +1°C° 0.4 mm 2 mps 633 mmHg 82%
    15:00 +1°C° 0.4 mm 2 mps 633 mmHg 82%
    16:00 -1°C° 0.2 mm 2 mps 633 mmHg 82%
    17:00 -1°C° 0.2 mm 2 mps 633 mmHg 83%
    18:00 -2°C° 0.2 mm 2 mps 634 mmHg 84%
    19:00 -2°C° 0.1 mm 2 mps 634 mmHg 82%
    20:00 -2°C° 0.1 mm 2 mps 634 mmHg 80%
    21:00 -2°C° 0.1 mm 2 mps 634 mmHg 79%
    22:00 -2°C° 0 mm 3 mps 634 mmHg 76%
    23:00 -4°C° 0 mm 3 mps 634 mmHg 74%

    Tomorrow, 21 January, Sunday

    Time Temperature Precipitation Wind Pressure Humidity
    00:00 -4°C° 0 mm 3 mps 634 mmHg 72%
    01:00 -4°C° 0 mm 3 mps 634 mmHg 70%
    02:00 -4°C° 0 mm 3 mps 634 mmHg 68%
    03:00 -4°C° 0 mm 3 mps 634 mmHg 67%
    04:00 -4°C° 0 mm 3 mps 634 mmHg 66%
    05:00 -4°C° 0 mm 3 mps 634 mmHg 65%
    06:00 -4°C° 0 mm 3 mps 634 mmHg 65%
    07:00 -2°C° 0 mm 3 mps 634 mmHg 63%
    08:00 -1°C° 0 mm 3 mps 634 mmHg 61%
    09:00 0°C° 0 mm 3 mps 635 mmHg 60%
    10:00 +2°C° 0 mm 3 mps 635 mmHg 57%
    11:00 +3°C° 0 mm 3 mps 634 mmHg 54%
    12:00 +5°C° 0 mm 4 mps 634 mmHg 52%
    13:00 +5°C° 0 mm 4 mps 634 mmHg 51%
    14:00 +5°C° 0 mm 4 mps 634 mmHg 50%
    15:00 +5°C° 0 mm 4 mps 633 mmHg 49%
    16:00 +3°C° 0 mm 3 mps 633 mmHg 50%
    17:00 +2°C° 0 mm 3 mps 633 mmHg 51%
    18:00 0°C° 0 mm 3 mps 633 mmHg 52%
    19:00 0°C° 0 mm 3 mps 633 mmHg 50%
    20:00 0°C° 0 mm 3 mps 633 mmHg 47%
    21:00 0°C° 0 mm 3 mps 633 mmHg 45%
    22:00 +1°C° 0 mm 2 mps 633 mmHg 44%
    23:00 +1°C° 0 mm 2 mps 633 mmHg 43%

    Day after tomorrow, 22 January, Monday

    Time Temperature Precipitation Wind Pressure Humidity
    00:00 +1°C° 0 mm 2 mps 633 mmHg 43%
    01:00 +1°C° 0 mm 2 mps 633 mmHg 42%
    02:00 +1°C° 0 mm 2 mps 633 mmHg 41%
    03:00 +1°C° 0 mm 2 mps 633 mmHg 40%
    04:00 +1°C° 0 mm 2 mps 632 mmHg 40%
    05:00 +1°C° 0 mm 2 mps 632 mmHg 39%
    06:00 +1°C° 0 mm 2 mps 632 mmHg 38%
    07:00 +2°C° 0 mm 2 mps 632 mmHg 38%
    08:00 +3°C° 0 mm 2 mps 632 mmHg 39%
    09:00 +4°C° 0 mm 2 mps 632 mmHg 39%
    10:00 +5°C° 0 mm 3 mps 632 mmHg 39%
    11:00 +7°C° 0 mm 3 mps 632 mmHg 39%
    12:00 +8°C° 0 mm 3 mps 631 mmHg 39%
    13:00 +8°C° 0 mm 3 mps 631 mmHg 40%
    14:00 +8°C° 0 mm 3 mps 630 mmHg 41%
    15:00 +8°C° 0 mm 3 mps 630 mmHg 42%
    16:00 +7°C° 0 mm 3 mps 630 mmHg 42%
    17:00 +4°C° 0 mm 3 mps 629 mmHg 42%
    18:00 +3°C° 0 mm 3 mps 629 mmHg 42%
    19:00 +3°C° 0 mm 3 mps 629 mmHg 40%
    20:00 +2°C° 0 mm 3 mps 628 mmHg 39%
    21:00 +2°C° 0 mm 3 mps 628 mmHg 37%
    22:00 +2°C° 0 mm 3 mps 628 mmHg 36%
    23:00 +1°C° 0 mm 4 mps 628 mmHg 35%

    23 January, Tuesday

    Time Temperature Precipitation Wind Pressure Humidity
    00:00 0°C° 0 mm 4 mps 627 mmHg 34%
    01:00 0°C° 0 mm 4 mps 627 mmHg 34%
    02:00 0°C° 0 mm 4 mps 627 mmHg 33%
    03:00 0°C° 0 mm 4 mps 627 mmHg 32%
    04:00 -1°C° 0 mm 4 mps 627 mmHg 32%
    05:00 -1°C° 0 mm 4 mps 627 mmHg 33%
    06:00 -1°C° 0 mm 4 mps 627 mmHg 33%
    07:00 +1°C° 0 mm 3 mps 628 mmHg 33%
    08:00 +2°C° 0 mm 3 mps 628 mmHg 33%
    09:00 +3°C° 0 mm 3 mps 628 mmHg 32%
    10:00 +5°C° 0 mm 4 mps 628 mmHg 31%
    11:00 +6°C° 0 mm 4 mps 628 mmHg 30%
    12:00 +7°C° 0 mm 4 mps 628 mmHg 29%
    13:00 +7°C° 0 mm 4 mps 628 mmHg 30%
    14:00 +7°C° 0 mm 4 mps 628 mmHg 31%
    15:00 +7°C° 0 mm 4 mps 628 mmHg 32%
    16:00 +5°C° 0 mm 4 mps 628 mmHg 35%
    17:00 +4°C° 0 mm 3 mps 627 mmHg 38%
    18:00 +2°C° 0 mm 3 mps 627 mmHg 41%
    19:00 +2°C° 0 mm 3 mps 627 mmHg 41%
    20:00 +2°C° 0 mm 3 mps 627 mmHg 41%
    21:00 +2°C° 0 mm 3 mps 628 mmHg 41%
    22:00 +3°C° 0 mm 2 mps 627 mmHg 43%
    23:00 +3°C° 0 mm 2 mps 627 mmHg 46%

    24 January, Wednesday

    Time Temperature Precipitation Wind Pressure Humidity
    00:00 +3°C° 0 mm 2 mps 627 mmHg 48%
    01:00 +3°C° 0 mm 2 mps 627 mmHg 52%
    02:00 +3°C° 0 mm 2 mps 627 mmHg 55%
    03:00 +2°C° 0 mm 2 mps 627 mmHg 58%
    04:00 +2°C° 0 mm 2 mps 628 mmHg 59%
    05:00 +2°C° 0 mm 2 mps 628 mmHg 60%
    06:00 +2°C° 0 mm 2 mps 628 mmHg 61%
    07:00 +1°C° 0 mm 3 mps 628 mmHg 60%
    08:00 +2°C° 0 mm 3 mps 629 mmHg 59%
    09:00 +3°C° 0 mm 3 mps 629 mmHg 58%
    10:00 +3°C° 0 mm 3 mps 630 mmHg 56%
    11:00 +4°C° 0 mm 4 mps 630 mmHg 54%
    12:00 +4°C° 0 mm 4 mps 630 mmHg 52%
    13:00 +4°C° 0.1 mm 4 mps 631 mmHg 53%
    14:00 +4°C° 0.1 mm 3 mps 631 mmHg 54%
    15:00 +4°C° 0.1 mm 3 mps 631 mmHg 54%
    16:00 +3°C° 0 mm 3 mps 631 mmHg 60%
    17:00 +3°C° 0 mm 2 mps 631 mmHg 65%
    18:00 +2°C° 0 mm 2 mps 632 mmHg 70%
    19:00 +1°C° 0 mm 2 mps 632 mmHg 73%
    20:00 +1°C° 0 mm 2 mps 632 mmHg 76%
    21:00 +1°C° 0 mm 2 mps 633 mmHg 79%
    22:00 -1°C° 0 mm 2 mps 633 mmHg 80%
    23:00 -1°C° 0 mm 2 mps 633 mmHg 81%

    25 January, Thursday

    Time Temperature Precipitation Wind Pressure Humidity
    00:00 -1°C° 0 mm 2 mps 633 mmHg 82%
    01:00 -1°C° 0 mm 2 mps 634 mmHg 83%
    02:00 -1°C° 0 mm 2 mps 634 mmHg 84%
    03:00 -2°C° 0 mm 2 mps 634 mmHg 86%
    04:00 -2°C° 0.1 mm 2 mps 634 mmHg 87%
    05:00 -2°C° 0.1 mm 2 mps 635 mmHg 88%
    06:00 -2°C° 0.1 mm 2 mps 635 mmHg 90%
    07:00 -1°C° 0.2 mm 3 mps 636 mmHg 89%
    08:00 -1°C° 0.2 mm 3 mps 636 mmHg 87%
    09:00 -1°C° 0.2 mm 3 mps 637 mmHg 86%
    10:00 -1°C° 0.3 mm 3 mps 637 mmHg 85%
    11:00 -1°C° 0.3 mm 4 mps 637 mmHg 83%
    12:00 -1°C° 0.3 mm 4 mps 637 mmHg 82%
    13:00 -1°C° 0.3 mm 4 mps 637 mmHg 82%
    14:00 -1°C° 0.3 mm 4 mps 637 mmHg 82%
    15:00 -1°C° 0.3 mm 4 mps 636 mmHg 82%
    16:00 -2°C° 0.2 mm 4 mps 637 mmHg 84%
    17:00 -1°C° 0.2 mm 3 mps 637 mmHg 87%
    18:00 -2°C° 0.2 mm 3 mps 637 mmHg 89%
    19:00 -2°C° 0.2 mm 3 mps 637 mmHg 89%
    20:00 -2°C° 0.2 mm 3 mps 638 mmHg 89%
    21:00 -2°C° 0.2 mm 3 mps 638 mmHg 90%
    22:00 -2°C° 0.2 mm 3 mps 638 mmHg 90%
    23:00 -2°C° 0.2 mm 3 mps 638 mmHg 90%
    Show more